Location: Unspecified
(0.0000°N, 0.0000°E)
Time: 21:21:04
(UTC+00:00)

Altair - Pass Details

Date: 22 July 2024
Orbit: 1502 x 1682 km, 47.2° (Epoch: 24 April)

Event Time Altitude Azimuth Distance (km) Brightness Sun altitude
Rises 01:21:02 0° 335° (NNW) 4,639 - -62.8°
Reaches altitude 10° 01:24:17 10° 343° (NNW) 3,674 - -62.2°
Maximum altitude 01:32:50 41° 50° (NE) 2,120 - -60.8°
Drops below altitude 10° 01:41:40 10° 117° (ESE) 3,804 - -59.2°
Exits shadow 01:44:59 - 124° (SE) 4,796 10.2 -58.6°
Sets 01:45:03 0° 124° (SE) 4,817 10.2 -58.5°
